Previsão horária em Junoszyno

Hoje, 19 Junho, Sábado

Tempo Temperatura Precipitação Vento Pressão Humidade
00:00 +20°C° 0 mm 4 m/s 763 mmHg 83%
01:00 +19°C° 0 mm 4 m/s 763 mmHg 86%
02:00 +19°C° 0 mm 4 m/s 763 mmHg 87%
03:00 +19°C° 0 mm 4 m/s 762 mmHg 88%
04:00 +19°C° 0 mm 4 m/s 762 mmHg 89%
05:00 +20°C° 0 mm 4 m/s 762 mmHg 84%
06:00 +22°C° 0 mm 4 m/s 762 mmHg 79%
07:00 +25°C° 0 mm 4 m/s 762 mmHg 74%
08:00 +26°C° 0 mm 4 m/s 762 mmHg 69%
09:00 +27°C° 0 mm 4 m/s 762 mmHg 65%
10:00 +29°C° 0 mm 4 m/s 762 mmHg 61%
11:00 +29°C° 0 mm 5 m/s 762 mmHg 58%
12:00 +30°C° 0 mm 5 m/s 762 mmHg 55%
13:00 +30°C° 0 mm 5 m/s 761 mmHg 52%
14:00 +30°C° 0 mm 4 m/s 761 mmHg 54%
15:00 +30°C° 0 mm 4 m/s 761 mmHg 55%
16:00 +30°C° 0 mm 4 m/s 761 mmHg 57%
17:00 +29°C° 0 mm 4 m/s 760 mmHg 62%
18:00 +28°C° 0 mm 4 m/s 760 mmHg 68%
19:00 +26°C° 0 mm 4 m/s 760 mmHg 73%
20:00 +25°C° 0 mm 4 m/s 760 mmHg 73%
21:00 +23°C° 0 mm 4 m/s 760 mmHg 73%
22:00 +22°C° 0 mm 4 m/s 761 mmHg 73%
23:00 +21°C° 0 mm 3 m/s 761 mmHg 78%

Amanhã, 20 Junho, Domingo

Tempo Temperatura Precipitação Vento Pressão Humidade
00:00 +21°C° 0 mm 3 m/s 761 mmHg 83%
01:00 +20°C° 0 mm 3 m/s 761 mmHg 88%
02:00 +20°C° 0 mm 3 m/s 760 mmHg 89%
03:00 +20°C° 0 mm 3 m/s 760 mmHg 90%
04:00 +20°C° 0 mm 3 m/s 760 mmHg 91%
05:00 +21°C° 0 mm 3 m/s 760 mmHg 86%
06:00 +23°C° 0 mm 4 m/s 760 mmHg 81%
07:00 +25°C° 0 mm 4 m/s 760 mmHg 76%
08:00 +26°C° 0 mm 4 m/s 760 mmHg 72%
09:00 +27°C° 0 mm 5 m/s 760 mmHg 68%
10:00 +28°C° 0 mm 5 m/s 760 mmHg 64%
11:00 +29°C° 0 mm 5 m/s 760 mmHg 60%
12:00 +30°C° 0 mm 5 m/s 759 mmHg 56%
13:00 +30°C° 0 mm 5 m/s 759 mmHg 53%
14:00 +30°C° 0 mm 4 m/s 759 mmHg 54%
15:00 +30°C° 0 mm 4 m/s 759 mmHg 56%
16:00 +30°C° 0 mm 4 m/s 758 mmHg 57%
17:00 +29°C° 0 mm 4 m/s 758 mmHg 63%
18:00 +28°C° 0 mm 4 m/s 758 mmHg 69%
19:00 +26°C° 0 mm 3 m/s 758 mmHg 75%
20:00 +25°C° 0 mm 4 m/s 758 mmHg 77%
21:00 +23°C° 0 mm 4 m/s 758 mmHg 79%
22:00 +22°C° 0 mm 4 m/s 758 mmHg 81%
23:00 +21°C° 0 mm 4 m/s 758 mmHg 84%

Depois de amanhã, 21 Junho, Segunda-feira

Tempo Temperatura Precipitação Vento Pressão Humidade
00:00 +21°C° 0 mm 4 m/s 757 mmHg 88%
01:00 +20°C° 0 mm 4 m/s 757 mmHg 91%
02:00 +20°C° 0 mm 3 m/s 757 mmHg 92%
03:00 +20°C° 0 mm 3 m/s 757 mmHg 93%
04:00 +20°C° 0 mm 3 m/s 757 mmHg 95%
05:00 +21°C° 0 mm 3 m/s 757 mmHg 88%
06:00 +23°C° 0 mm 4 m/s 757 mmHg 82%
07:00 +25°C° 0 mm 4 m/s 757 mmHg 76%
08:00 +27°C° 0 mm 4 m/s 757 mmHg 71%
09:00 +28°C° 0 mm 4 m/s 757 mmHg 65%
10:00 +29°C° 0 mm 4 m/s 757 mmHg 60%
11:00 +29°C° 0 mm 4 m/s 757 mmHg 60%
12:00 +29°C° 0 mm 4 m/s 757 mmHg 59%
13:00 +29°C° 0 mm 4 m/s 756 mmHg 59%
14:00 +29°C° 0 mm 4 m/s 756 mmHg 59%
15:00 +30°C° 0 mm 4 m/s 756 mmHg 58%
16:00 +30°C° 0 mm 3 m/s 756 mmHg 58%
17:00 +29°C° 0 mm 3 m/s 756 mmHg 64%
18:00 +28°C° 0 mm 3 m/s 755 mmHg 70%
19:00 +27°C° 0 mm 2 m/s 755 mmHg 76%
20:00 +25°C° 0.1 mm 3 m/s 755 mmHg 79%
21:00 +24°C° 0.1 mm 3 m/s 756 mmHg 82%
22:00 +22°C° 0.1 mm 3 m/s 756 mmHg 85%
23:00 +21°C° 0 mm 3 m/s 756 mmHg 86%

22 Junho, Terça-feira

Tempo Temperatura Precipitação Vento Pressão Humidade
00:00 +21°C° 0 mm 3 m/s 756 mmHg 88%
01:00 +20°C° 0 mm 3 m/s 756 mmHg 89%
02:00 +20°C° 0 mm 2 m/s 756 mmHg 90%
03:00 +20°C° 0 mm 2 m/s 756 mmHg 91%
04:00 +21°C° 0 mm 1 m/s 756 mmHg 92%
05:00 +21°C° 0.2 mm 2 m/s 756 mmHg 89%
06:00 +23°C° 0.2 mm 2 m/s 757 mmHg 86%
07:00 +24°C° 0.2 mm 2 m/s 757 mmHg 83%
08:00 +24°C° 0.3 mm 2 m/s 757 mmHg 83%
09:00 +25°C° 0.3 mm 3 m/s 757 mmHg 82%
10:00 +25°C° 0.3 mm 3 m/s 758 mmHg 81%
11:00 +25°C° 0.2 mm 3 m/s 758 mmHg 80%
12:00 +25°C° 0.2 mm 3 m/s 758 mmHg 78%
13:00 +25°C° 0.2 mm 4 m/s 759 mmHg 76%
14:00 +25°C° 0.1 mm 4 m/s 759 mmHg 75%
15:00 +25°C° 0.1 mm 4 m/s 759 mmHg 74%
16:00 +23°C° 0.1 mm 4 m/s 759 mmHg 73%
17:00 +22°C° 0 mm 4 m/s 760 mmHg 76%
18:00 +21°C° 0 mm 4 m/s 760 mmHg 79%
19:00 +20°C° 0 mm 4 m/s 760 mmHg 82%
20:00 +19°C° 0 mm 3 m/s 760 mmHg 85%
21:00 +18°C° 0 mm 3 m/s 761 mmHg 88%
22:00 +17°C° 0 mm 3 m/s 761 mmHg 91%
23:00 +17°C° 0 mm 3 m/s 761 mmHg 91%

23 Junho, Quarta-feira

Tempo Temperatura Precipitação Vento Pressão Humidade
00:00 +17°C° 0 mm 3 m/s 761 mmHg 91%
01:00 +17°C° 0 mm 3 m/s 761 mmHg 91%
02:00 +17°C° 0 mm 2 m/s 761 mmHg 91%
03:00 +17°C° 0 mm 2 m/s 761 mmHg 90%
04:00 +17°C° 0 mm 2 m/s 761 mmHg 90%
05:00 +18°C° 0 mm 2 m/s 761 mmHg 84%
06:00 +20°C° 0 mm 2 m/s 761 mmHg 79%
07:00 +21°C° 0 mm 2 m/s 762 mmHg 74%
08:00 +23°C° 0 mm 2 m/s 762 mmHg 71%
09:00 +24°C° 0 mm 2 m/s 762 mmHg 69%
10:00 +26°C° 0 mm 2 m/s 761 mmHg 66%
11:00 +26°C° 0 mm 2 m/s 761 mmHg 65%
12:00 +26°C° 0 mm 3 m/s 761 mmHg 65%
13:00 +27°C° 0 mm 3 m/s 761 mmHg 64%
14:00 +26°C° 0.2 mm 3 m/s 761 mmHg 67%
15:00 +26°C° 0.2 mm 3 m/s 761 mmHg 71%
16:00 +25°C° 0.2 mm 4 m/s 761 mmHg 74%
17:00 +24°C° 0.1 mm 3 m/s 761 mmHg 78%
18:00 +22°C° 0.1 mm 3 m/s 761 mmHg 82%
19:00 +21°C° 0.1 mm 3 m/s 761 mmHg 86%
20:00 +21°C° 0 mm 3 m/s 761 mmHg 89%
21:00 +20°C° 0 mm 3 m/s 761 mmHg 92%
22:00 +19°C° 0 mm 2 m/s 762 mmHg 95%
23:00 +19°C° 0.1 mm 2 m/s 761 mmHg 95%

24 Junho, Quinta-feira

Tempo Temperatura Precipitação Vento Pressão Humidade
00:00 +19°C° 0.1 mm 2 m/s 761 mmHg 96%
01:00 +19°C° 0.1 mm 2 m/s 761 mmHg 96%
02:00 +19°C° 0 mm 2 m/s 761 mmHg 96%
03:00 +19°C° 0 mm 2 m/s 761 mmHg 96%
04:00 +19°C° 0 mm 2 m/s 761 mmHg 96%
05:00 +20°C° 0.1 mm 2 m/s 761 mmHg 92%
06:00 +21°C° 0.1 mm 2 m/s 761 mmHg 88%
07:00 +24°C° 0.1 mm 2 m/s 761 mmHg 83%
08:00 +24°C° 0.7 mm 3 m/s 761 mmHg 83%
09:00 +24°C° 0.7 mm 3 m/s 761 mmHg 83%
10:00 +25°C° 0.7 mm 3 m/s 761 mmHg 82%
11:00 +25°C° 0.3 mm 3 m/s 761 mmHg 83%
12:00 +24°C° 0.3 mm 2 m/s 761 mmHg 83%
13:00 +24°C° 0.3 mm 2 m/s 761 mmHg 83%
14:00 +24°C° 0.3 mm 3 m/s 761 mmHg 84%
15:00 +24°C° 0.3 mm 3 m/s 761 mmHg 84%
16:00 +24°C° 0.3 mm 3 m/s 761 mmHg 84%
17:00 +22°C° 0.1 mm 3 m/s 761 mmHg 87%
18:00 +21°C° 0.1 mm 4 m/s 760 mmHg 89%
19:00 +20°C° 0.1 mm 4 m/s 760 mmHg 92%
20:00 +19°C° 0 mm 4 m/s 760 mmHg 93%
21:00 +18°C° 0 mm 4 m/s 760 mmHg 95%
22:00 +18°C° 0 mm 3 m/s 760 mmHg 96%
23:00 +18°C° 0 mm 4 m/s 760 mmHg 95%
Mostrar mais

Necessitamos do seu Consentimento

A Meteoprog e os seus Fornecedores de Serviços podem armazenar e aceder a dados pessoais como cookies, identificadores do dispositivo ou outras tecnologias semelhantes existentes no seu dispositivo e processar estes dados para personalizar conteúdos e anúncios, assim como funcionalidades nas redes sociais e análise de tráfego.

  • Armazenar e/ou aceder a informações no seu dispositivo

    Os cookies, identificadores do dispositivo ou outras informações podem ser armazenados ou acedidos no seu dispositivo, para os fins acima indicados.

  • Anúncios e conteúdos personalizados, medição de anúncios e conteúdos, dados sobre o público-alvo e desenvolvimento de produtos

    Os anúncios e os conteúdos podem ser personalizados com base num perfil. Podem ser adicionados dados adicionais para uma maior personalização dos anúncios e dos conteúdos. A eficácia dos anúncios e dos conteúdos pode ser medida. Podem ser obtidas informações sobre o público que visualizou os anúncios e os conteúdos. Estes dados podem ser usados para desenvolver ou melhorar sistemas, softwares ou a experiência do utilizador.

Ao clicar em "Eu concordo”, permitirá o uso de cookies, identificadores do dispositivo e web beacons mencionados ou outras tecnologias semelhantes. As configurações do navegador do seu dispositivo podem ser alteradas.

Para certos fins, podem ser invocados interesses legítimos ao invés de consentimento. Pode ler mais informação sobre este assunto na nossa Política de Privacidade e Cookies.